www.pogodaiklimat.ru

Погода и климат >> Архив погоды >> Буркина-Фасо >> Вахигуя


ПОГОДА в Вахигуе

  • Прогноз погоды в Вахигуе
  • Монитор погоды в Вахигуе

АРХИВ ПОГОДЫ в Вахигуе

Время (UTC), дата Ветер
(напр.,м/с)
 
Видим.   Явления Облачность Т
(С)
Тd
(С)
f
(%)
Тe
(С)
Тes
(С)
Комфортность P
(гПа)
Po
(гПа)
Тmin
(С)
Tmax
(С)
R
(мм)
R24
(мм)
S
(см)
12 12.06 ЮВ 3 10 км 9/1 600 м
[Sc Ci sp]
+34.7 +20.8 44 +41 +55 опасность
перегрева
1010.9 974.2
15 12.06 ЮВ 3 10 км 9/3 600 м
[Sc Ci sp]
+37.0 +18.4 34 +41 +47 опасность
перегрева
1008.4 971.8
18 12.06 В 1 10 км 9/1 600 м
[Sc Ac As Ci sp]
+34.6 +17.6 37 +38 +39 очень
душно
1007.6 970.9 +37.9
21 12.06 Ю 1 10 км 9/0
[Ac As Ci sp]
+34.0 +19.5 43 +40 +40 очень
душно
1009.5 972.7
00 13.06 ЮВ 1 10 км зарница 9/1 1200 м
[Cb cap Ac As Ci sp]
+32.2 +20.8 51 +39 +39 очень
душно
1010.5 973.8
03 13.06 З 5 10 км зарница 9/1 600 м
[Cb cap Ac As Ci sp]
+26.1 +19.8 68 +32 +32 очень
душно
1011.1 974.2
06 13.06 штиль 0 10 км 9/0
[Ac As Ci sp]
+27.4 +21.5 70 +35 +35 очень
душно
1011.5 974.5 +25.8
09 13.06 ЮЗ 4 10 км 9/0
[Ci sp]
+32.4 +21.0 51 +40 +46 очень
душно
1012.6 975.9
12 13.06 СЗ 3 10 км 9/5 600 м
[Cu Sc Ci sp]
+34.6 +21.7 47 +43 +50 опасность
перегрева
1011.4 974.7
15 13.06 В 4 10 км гроза, ливневой дождь 10/3 600 м
[Cb cap Ac As]
+36.0 +21.7 44 +44 +46 опасность
перегрева
1009.8 972.9
18 13.06 З 2 10 км гроза без осадков 9/3 600 м
[Cb cap Ac As Ci sp]
+31.3 +21.6 56 +39 +40 очень
душно
1008.7 971.6 +37.0 2
21 13.06 Ю 3 10 км гроза без осадков 9/1 1200 м
[Cb cap Ac As Ci sp]
+29.0 +22.7 69 +38 +38 очень
душно
1011.0 974.0
03 14.06 З 2 10 км 9/0
[Ac As Ci sp]
+27.6 +21.6 70 +35 +35 очень
душно
1010.2 973.4
06 14.06 Ю 3 10 км 9/0
[Ac As Ci sp]
+26.7 +22.8 79 +35 +35 очень
душно
1012.4 975.1 +26.5 3
09 14.06 ЮЗ 3 10 км 9/0
[Ac As Ci sp]
+30.5 +21.5 59 +39 +45 очень
душно
1013.0 975.8
12 14.06 ЮЗ 1 10 км 9/0
[Ci sp]
+36.0 +20.6 41 +43 +63 опасность
перегрева
1011.2 974.4
15 14.06 штиль 0 15 км 9/1 600 м
[Cu Sc Ac As Ci sp]
+37.8 +20.2 36 +44 +52 опасность
перегрева
1008.8 972.1
18 14.06 СВ 1 10 км 9/1 600 м
[Cu Sc Ac As Ci sp]
+37.4 +18.4 33 +41 +42 опасность
перегрева
1007.8 971.1 +39.5
21 14.06 ЮВ 2 10 км в посл. час дождь 10/0
[Ac As]
+32.6 +20.3 48 +39 +39 очень
душно
1010.7 973.8
00 15.06 В 5 10 км {дождь} 10/0
[Ac As]
+31.4 +20.2 51 +38 +38 очень
душно
1011.8 975.1 0.9
03 15.06 ЮЗ 1 10 км 9/0
[Ac trans Ci sp]
+29.3 +20.6 59 +36 +36 очень
душно
1008.5 972.0
06 15.06 ЮЗ 1 10 км 9/0
[Ac As Ci sp]
+28.1 +20.5 63 +35 +35 очень
душно
1010.3 973.6 +28.1 0.9
09 15.06 ЮЗ 3 10 км 9/0
[Ci sp]
+32.0 +19.7 48 +38 +45 очень
душно
1011.5 974.7
12 15.06 ЮЗ 4 10 км 9/0
[Ci sp]
+36.1 +21.6 43 +44 +55 опасность
перегрева
1009.8 973.2
15 15.06 штиль 0 10 км 9/1 600 м
[Sc Ci sp]
+39.6 +19.9 32 +45 +57 опасность
перегрева
1007.3 970.9
18 15.06 ЮЗ 1 10 км 9/1 600 м
[Sc Ci sp]
+38.7 +18.8 31 +43 +43 опасность
перегрева
1007.2 970.6 +40.5
21 15.06 ЮВ 2 10 км зарница 9/1 1200 м
[Cb cap Ci sp]
+36.0 +19.0 37 +41 +41 опасность
перегрева
1009.5 973.0
00 16.06 Ю 3 10 км 9/0
[Ci sp]
+32.7 +19.5 46 +38 +38 очень
душно
1010.7 974.1
03 16.06 Ю 7 10 км 9/0
[Ci sp]
+31.4 +20.5 52 +38 +38 очень
душно
1008.3 972.0
06 16.06 ЮЗ 3 10 км 9/0
[Ac As Ci sp]
+30.1 +22.0 62 +39 +39 очень
душно
1011.3 974.7 +30.1
09 16.06 ЮЗ 5 10 км 9/0
[Ci sp]
+33.0 +21.6 51 +41 +46 опасность
перегрева
1011.2 974.6
12 16.06 ЮЗ 3 10 км 9/0
[Ci sp]
+37.0 +22.1 42 +45 +60 опасность
перегрева
1010.3 973.8
15 16.06 ЮЗ 2 10 км 9/1 600 м
[Sc Ci sp]
+39.5 +19.9 32 +45 +54 опасность
перегрева
1007.8 971.5
18 16.06 ЮВ 3 10 км 9/1 600 м
[Cu Sc Ci sp]
+38.2 +19.1 33 +43 +43 опасность
перегрева
1007.7 971.2 +40.6
21 16.06 ЮВ 3 10 км 9/0
[Ci sp]
+35.8 +20.5 41 +42 +42 опасность
перегрева
1010.1 973.6
00 17.06 ЮВ 2 10 км зарница 9/1 1200 м
[Cb cap Ac As Ci sp]
+34.1 +19.1 41 +39 +39 очень
душно
1009.9 973.5
03 17.06 СЗ 3 10 км гроза без осадков 10/1 1200 м
[Cb cap Ac As]
+29.0 +21.7 65 +37 +37 очень
душно
1009.6 973.0
06 17.06 СЗ 2 10 км {гроза, дождь} 10/0
[Ac As]
+27.1 +21.4 71 +34 +34 очень
душно
1010.0 973.3 +27.1 2
09 17.06 ЮВ 4 10 км 9/0
[Ci sp]
+31.1 +21.5 57 +39 +45 очень
душно
1012.7 975.9
12 17.06 ЮВ 4 10 км 9/0
[Cs]
+34.8 +22.3 48 +44 +55 опасность
перегрева
1010.8 974.2
15 17.06 В 2 10 км 9/0
[Ci sp]
+36.4 +21.5 42 +44 +54 опасность
перегрева
1009.0 972.4
18 17.06 СВ 2 10 км 9/0
[Ci sp]
+35.4 +20.2 41 +41 +42 опасность
перегрева
1008.6 971.8 +36.6
21 17.06 ЮЗ 4 10 км 9/0
[Ac trans Ci sp]
+32.7 +21.2 51 +40 +40 очень
душно
1010.9 974.0
00 18.06 ЮЗ 2 10 км 9/0
[Ci sp]
+32.0 +20.6 51 +39 +39 очень
душно
1010.8 974.2
03 18.06 ЮЗ 2 10 км 9/0
[Ci sp]
+31.0 +20.0 52 +37 +37 очень
душно
1010.0 973.4
06 18.06 ЮЗ 2 10 км 9/0
[Ci sp]
+28.6 +20.3 61 +35 +35 очень
душно
1010.5 973.7 +28.6
09 18.06 ЮЗ 3 10 км 9/0
[Ci sp]
+32.0 +22.2 56 +41 +48 опасность
перегрева
1012.2 975.3
12 18.06 ЮВ 1 10 км 9/0
[Ci sp]
+36.3 +20.3 39 +42 +64 опасность
перегрева
1010.8 974.2
15 18.06 ЮВ 2 10 км 9/1 600 м
[Sc Ci sp]
+40.5 +15.1 23 +42 +51 опасность
перегрева
1008.6 972.2
18 18.06 ЮВ 2 10 км 9/1 600 м
[Sc Ci sp]
+39.0 +15.0 24 +40 +40 очень
душно
1008.7 972.2 +41.0
21 18.06 ЮЗ 1 10 км 9/0
[Ci sp]
+36.1 +17.7 34 +40 +40 очень
душно
1009.8 973.3
00 19.06 ЮЗ 3 10 км 9/0
[Ci sp]
+34.5 +17.1 36 +38 +38 очень
душно
1010.4 974.0
03 19.06 Ю 3 10 км 9/0
[Ac As Ci sp]
+32.5 +19.1 45 +38 +38 очень
душно
1009.4 973.1
06 19.06 ЮЗ 3 10 км 10/0
[Ac As]
+31.2 +19.8 51 +37 +37 очень
душно
1009.5 973.1 +31.2
09 19.06 ЮЗ 3 10 км 10/0
[Ac As]
+32.1 +20.7 51 +39 +42 очень
душно
1011.3 974.6

 

Местоположение метеостанции Вахигуя (Буркина-Фасо): широта 13.57 долгота -2.42 высота над уровнем моря 336 м.

В архиве по умолчанию представлена погода в Вахигуе за последнюю неделю. Архивные данные за месяц целиком и за предыдущие месяцы, начиная с января 2011 года, Вы можете получить, выбрав интересующий диапазон дат из раскрывающегося списка и нажав кнопку "Ввод!".


*Определитесь, кто Вы:
робот инопланетянин человек

Внимание! Время в таблицах - всемирное. Для получения местного времени необходимо прибавить поправку, которая равна 0 ч.

Смотрите также архив погоды в соседних городах и на ближайших метеорологических станциях:

Погода в Уагадугу (Буркина-Фасо) (167 км)
Погода в Дедугу (Буркина-Фасо) (168 км)
Погода в Мопти (Мали) (210 км)
Погода в Боромо (Буркина-Фасо) (210 км)
Погода в Сане (Мали) (262 км)
Погода в Дори (Буркина-Фасо) (263 км)
Погода в По (Буркина-Фасо) (302 км)
Погода в Навронго (Гана) (330 км)
Погода в Бобо-Диуласо (Буркина-Фасо) (337 км)
Погода в Фада-Нгурме (Буркина-Фасо) (348 км)

Пояснения к столбцам:

Ветер - указаны скорость ветра в м/с - средняя за 10 мин, порывы в срок и между сроками (в фигурных скобках) и направление, откуда дует ветер: С - северный, СВ - северо-восточный, В - восточный, ЮВ - юго-восточный, Ю - южный, ЮЗ - юго-западный, З - западный, СЗ - северо-западный.
Видимость - горизонтальная дальность видимости в метрах или километрах. При видимости от 1 до 10 км при отсутствии осадков обычно наблюдается дымка, при ухудшении видимости до 1 км и менее - туман. В сухую погоду видимость может ухудшаться дымом, пылью или мглою.
Явления - указаны атмосферные явления, наблюдавшиеся в срок или в последний час перед сроком; фигурными скобками обозначены явления, наблюдавшиеся между сроками (за 1-3 часа до срока); квадратными скобками обозначены град или гололедные отложения с указанием их диаметра в мм.
Облачность - указаны через наклонную черту общая и нижняя облачность в баллах и высота нижней границы облаков в метрах; квадратными скобками обозначены формы облаков: Ci - перистые, Cs - перисто-слоистые, Cc - перисто-кучевые, Ac - высококучевые, As - высокослоистые, Sc - слоисто-кучевые, Ns - слоисто-дождевые, Cu - кучевые, Cb - кучево-дождевые. Подробнее классификацию облаков см. в Атласе облаков (PDF).
T - Температура воздуха - температура, измеренная на высоте 2 м над землей.
Td - Температура точки росы - температура, при понижении до которой содержащийся в воздухе водяной пар достигнет насыщения.
f - Относительная влажность воздуха - влажноcть воздуха, измеренная на высоте 2 м над землей.
Te - Эффективная температура - температура, которую ощущает одетый по сезону человек в тени. Характеристика душности погоды. При расчете учитывается влияние влажности воздуха и скорости ветра на теплоощущения человека.
Tes - Эффективная температура на солнце - температура, которую ощущает человек, с поправкой на солнечный нагрев. Характеристика знойности погоды. Зависит от высоты солнца над горизонтом, облачности и скорости ветра. Ночью, в пасмурную погоду, а также при ветре 12 м/с и более поправка равна нулю.
P - Атмосферное давление - приведенное к уровню моря атмосферное давление.
Po - Атмосферное давление - измеренное на уровне метеостанции атмосферное давление.
Tmin - Минимальная температура - минимум температуры воздуха на высоте 2 м над землей.
Tmax - Максимальная температура - максимум температуры воздуха на высоте 2 м над землей.
R - Количество осадков - Количество выпавших осадков за период времени, мм. При наведении курсора мыши на число - период времени, за который выпало указанное количество осадков.
R24 - Количество осадков - Количество выпавших осадков за 24 часа, мм.
S - Снежный покров - Высота снежного покрова, см. При наведении курсора мыши на число - состояние снежного покрова и степень покрытия местности в баллах.